This demonstration page uses our WeatherBlox Daily Observations layout. Learn more.

Left ArrowRight Arrow

38.80484, -77.04692

Hourly Observations for May 21, 2021

Temp ( °F °C ) Dew Point ( °F °C ) Humidity (%) Winds ( mph kmh ) Pressure ( in mb ) Visibility ( mi km ) Precip ( " mm )
12:52 am 00:52 Mostly Cloudy 64 17.8 47 8.3 54 54 SSE 3 6 30.51 1033 10 16 N/A
1:52 am 01:52 Mostly Cloudy 64 17.8 48 8.9 56 56 SSE 3 6 30.51 1033 10 16 N/A
2:52 am 02:52 Mostly Cloudy 63 17.2 48 8.9 58 58 SSW 3 6 30.50 1033 10 16 N/A
3:52 am 03:52 Mostly Cloudy 62 16.7 47 8.3 58 58 N N/A 30.50 1033 10 16 N/A
4:52 am 04:52 Mostly Clear 61 16.1 51 10.6 70 70 SSE 3 6 30.50 1033 10 16 N/A
5:52 am 05:52 Mostly Sunny 60 15.6 49 9.4 67 67 N N/A 30.51 1033 10 16 N/A
6:52 am 06:52 Mostly Sunny 61 16.1 52 11.1 72 72 N N/A 30.52 1034 10 16 N/A
7:52 am 07:52 Mostly Sunny 66 18.9 50 10 56 56 N N/A 30.54 1034 10 16 N/A
8:52 am 08:52 Sunny 67 19.4 48 8.9 51 51 N N/A 30.55 1034 10 16 N/A
9:52 am 09:52 Sunny 71 21.7 42 5.6 35 35 SSW 6 9 30.55 1034 10 16 N/A
10:52 am 10:52 Sunny 73 22.8 45 7.2 37 37 S 6 9 30.55 1034 10 16 N/A
11:52 am 11:52 Sunny 76 24.4 41 5 29 29 SSW 6 9 30.53 1034 10 16 N/A
12:52 pm 12:52 Mostly Sunny 80 26.7 45 7.2 29 29 S 7 11 30.52 1034 10 16 N/A
1:52 pm 13:52 Mostly Sunny 80 26.7 47 8.3 31 31 S 7 11 30.50 1033 10 16 N/A
2:52 pm 14:52 Partly Cloudy 81 27.2 49 9.4 33 33 SSE 6 9 30.48 1032 10 16 N/A
3:52 pm 15:52 Mostly Cloudy 82 27.8 50 10 33 33 S 9 15 30.45 1031 10 16 N/A
4:52 pm 16:52 Mostly Cloudy 83 28.3 51 10.6 33 33 S 8 13 30.44 1031 10 16 N/A
5:52 pm 17:52 Mostly Cloudy 81 27.2 56 13.3 42 42 S 12 19 30.43 1031 10 16 N/A
6:52 pm 18:52 Mostly Cloudy 78 25.6 56 13.3 47 47 S 12 19 30.42 1030 10 16 N/A
7:52 pm 19:52 Mostly Cloudy 77 25 56 13.3 48 48 S 9 15 30.42 1030 10 16 N/A
8:52 pm 20:52 Mostly Cloudy 73 22.8 53 11.7 50 50 S 9 15 30.43 1030 10 16 N/A
9:52 pm 21:52 Mostly Cloudy 72 22.2 49 9.4 44 44 S 7 11 30.42 1030 10 16 N/A
10:52 pm 22:52 Mostly Cloudy 70 21.1 49 9.4 47 47 S 8 13 30.42 1030 10 16 N/A
11:52 pm 23:52 Mostly Cloudy 69 20.6 50 10 51 51 SW 5 7 30.41 1030 10 16 N/A

Powered by AerisWeather